{"data":{"norad_id":59614,"epoch":"2026-09-21T08:13:01.971552Z","epoch_age_seconds":95336,"freshness":"FRESH","line1":"1 59614U 24080P   26264.34238393 -.00000583  00000+0 -11667-4 0  9996","line2":"2 59614  43.0039  13.0989 0001072 272.2637  87.8091 15.27568373134452","mean_motion":15.27568373,"eccentricity":0.0001072,"inclination_deg":43.0039,"raan_deg":13.0989,"arg_perigee_deg":272.2637,"mean_anomaly_deg":87.8091,"bstar":-1.1667e-5,"rev_number":13445,"period_min":94.267466219661,"perigee_km":482.34838879954,"apogee_km":483.81943456301,"semimajor_km":6861.2209116813,"source":"CELESTRAK","updated_at":"2026-09-22T09:00:49.012578Z"}}